Regional Weather Roundup
Issued by NWS

Home | Current Version | Previous Version | Text Only | Print | Product List | Glossary On
Versions: 1 2 3 4 5 6 7 8 9 10 11 12 13 14 15 16 17 18 19 20 21 22 23 24 25 26 27 28 29 30 31 32 33 34 35 36 37 38 39 40 41 42 43 44 45 46 47 48 49 50
000
ASUS43 KBIS 231520
RWRND

NORTH DAKOTA REGIONAL WEATHER ROUNDUP
NATIONAL WEATHER SERVICE BISMARCK ND
1000 AM CDT THU OCT 23 2014

NOTE: "FAIR" INDICATES FEW OR NO CLOUDS BELOW 12,000 FEET WITH NO
SIGNIFICANT WEATHER AND/OR OBSTRUCTIONS TO VISIBILITY.


NDZ001>003-009>011-017-231600-
NORTHWEST NORTH DAKOTA

CITY           SKY/WX    TMP DP  RH WIND       PRES   REMARKS
WILLISTON      SUNNY     40  33  76 S5        29.85R
MINOT          SUNNY     48  34  58 SW13      29.83F
MINOT AFB      SUNNY     49  37  64 SW8       29.83S
$$

NDZ018>021-031>035-040>046-231600-
SOUTHWEST NORTH DAKOTA

CITY           SKY/WX    TMP DP  RH WIND       PRES   REMARKS
BISMARCK       SUNNY     42  35  76 CALM      29.92S
DICKINSON      SUNNY     48  31  51 SW9       29.88R
GARRISON         N/A     45  39  79 CALM      29.86S
HETTINGER ARPT SUNNY     44  32  62 CALM      29.94R
$$

NDZ004>008-012>016-024-026-027-054-231600-
NORTHEAST NORTH DAKOTA

CITY           SKY/WX    TMP DP  RH WIND       PRES   REMARKS
GRAND FORKS    SUNNY     51  42  71 SW7       29.86S
GRND FRKS AFB  SUNNY     53  43  67 SW9       29.86S
DEVILS LAKE    SUNNY     50  36  57 SW13      29.85R
$$

NDZ022-023-025-028>030-036>039-047>053-231600-
SOUTHEAST NORTH DAKOTA

CITY           SKY/WX    TMP DP  RH WIND       PRES   REMARKS
FARGO          SUNNY     49  41  74 S7        29.92S
JAMESTOWN      SUNNY     49  38  65 SW9       29.91S
$$




USA.gov is the U.S. government's official web portal to all federal, state and local government web resources and services.